RYR3054 EICK-LFOB

Flight info

Callsign RYR3054
Flight time N/A
Altitude 35000
Route ELTIG1S ELTIG DCT NORLA DCT PEWBI DCT OXLOW M140 SAM L620 MID Y803 SFD/N0353F230 M605 HARDY/N0334F190 M605 PETAX/N0326F170 J150 VELOL
Aircraft B738/M-SDE2E3FGHIRWXY/LB1

Departure

Time N/A
Airport Cork International Airport (EICK)

Arrival

Time 2026-04-22 21:02
Airport Beauvais-Tillé airport (LFOB)
Time Latitude Longitude Altitude Speed Heading
2026-04-22 20:36 51.03676 -0.61837 35353 ft 542 kts 104°
2026-04-22 20:36 51.03138 -0.56760 35347 ft 538 kts 109°
2026-04-22 20:36 51.02311 -0.51823 35340 ft 527 kts 118°
2026-04-22 20:37 51.01045 -0.47234 35345 ft 513 kts 127°
2026-04-22 20:37 50.97863 -0.38515 35340 ft 491 kts 140°
2026-04-22 20:37 50.95723 -0.34967 35345 ft 470 kts 152°
2026-04-22 20:38 50.93563 -0.31694 35344 ft 478 kts 144°
2026-04-22 20:38 50.91676 -0.27858 35344 ft 490 kts 135°
2026-04-22 20:38 50.89822 -0.23345 35347 ft 493 kts 132°
2026-04-22 20:39 50.86659 -0.15351 35344 ft 492 kts 132°
2026-04-22 20:39 50.83240 -0.06743 35344 ft 492 kts 132°
2026-04-22 20:40 50.79863 0.01773 35344 ft 493 kts 131°
2026-04-22 20:40 50.79219 0.03460 35344 ft 494 kts 130°
2026-04-22 20:41 50.76590 0.09984 35343 ft 482 kts 137°
2026-04-22 20:41 50.74437 0.13970 35331 ft 464 kts 147°
2026-04-22 20:41 50.72010 0.17332 34715 ft 450 kts 154°
2026-04-22 20:41 50.69520 0.20403 34003 ft 447 kts 155°
2026-04-22 20:42 50.67046 0.23494 33266 ft 447 kts 154°
2026-04-22 20:42 50.64597 0.26592 32493 ft 447 kts 153°
2026-04-22 20:42 50.62181 0.29653 32047 ft 447 kts 153°
2026-04-22 20:42 50.59816 0.32636 31665 ft 456 kts 153°
2026-04-22 20:43 50.57348 0.35752 31266 ft 461 kts 152°
2026-04-22 20:43 50.54878 0.38887 30866 ft 461 kts 152°
2026-04-22 20:43 50.52419 0.42014 30355 ft 462 kts 152°
2026-04-22 20:43 50.50108 0.44950 29866 ft 461 kts 151°
2026-04-22 20:44 50.47728 0.47968 29363 ft 461 kts 151°
2026-04-22 20:44 50.45225 0.51138 28833 ft 461 kts 151°
2026-04-22 20:44 50.42801 0.54204 28321 ft 461 kts 150°
2026-04-22 20:44 50.40324 0.57333 27798 ft 461 kts 150°
2026-04-22 20:45 50.37768 0.60557 27036 ft 465 kts 150°
2026-04-22 20:45 50.35189 0.63803 26190 ft 467 kts 149°
2026-04-22 20:45 50.32691 0.66955 25370 ft 465 kts 150°
2026-04-22 20:45 50.30255 0.70034 24561 ft 460 kts 149°
2026-04-22 20:46 50.25275 0.76313 22889 ft 447 kts 149°
2026-04-22 20:46 50.22918 0.79274 22073 ft 440 kts 149°
2026-04-22 20:46 50.20574 0.82213 21252 ft 434 kts 148°
2026-04-22 20:47 50.18333 0.85435 20415 ft 436 kts 140°
2026-04-22 20:47 50.16272 0.89004 19572 ft 432 kts 137°
2026-04-22 20:47 50.14296 0.92507 18738 ft 425 kts 137°
2026-04-22 20:47 50.12317 0.96000 17894 ft 419 kts 137°
2026-04-22 20:48 50.10472 0.99240 17097 ft 413 kts 138°
2026-04-22 20:48 50.08488 1.02398 16271 ft 406 kts 141°
2026-04-22 20:48 50.06504 1.05408 15453 ft 402 kts 140°
2026-04-22 20:48 50.05222 1.07378 14917 ft 399 kts 140°
2026-04-22 20:49 50.03448 1.10129 14166 ft 395 kts 139°
2026-04-22 20:49 50.01995 1.12392 13542 ft 392 kts 139°
2026-04-22 20:49 50.00098 1.15351 12719 ft 387 kts 139°
2026-04-22 20:49 49.98249 1.18240 12110 ft 380 kts 138°
2026-04-22 20:50 49.96429 1.21081 11537 ft 379 kts 137°
2026-04-22 20:50 49.94600 1.23942 11246 ft 359 kts 137°
2026-04-22 20:50 49.92820 1.26726 10984 ft 342 kts 137°
2026-04-22 20:50 49.91155 1.29324 10728 ft 327 kts 137°
2026-04-22 20:51 49.89625 1.31709 10485 ft 316 kts 136°
2026-04-22 20:51 49.88214 1.33908 10255 ft 309 kts 136°
2026-04-22 20:51 49.86679 1.36297 9998 ft 303 kts 136°
2026-04-22 20:51 49.85238 1.38538 9755 ft 301 kts 136°
2026-04-22 20:52 49.83773 1.40817 9505 ft 300 kts 135°
2026-04-22 20:52 49.82326 1.43064 9259 ft 298 kts 135°
2026-04-22 20:52 49.80988 1.45142 9030 ft 297 kts 135°
2026-04-22 20:52 49.79561 1.47357 8785 ft 295 kts 134°
2026-04-22 20:53 49.78102 1.49616 8533 ft 294 kts 134°
2026-04-22 20:53 49.76682 1.51814 8287 ft 292 kts 134°
2026-04-22 20:53 49.75235 1.54051 7987 ft 292 kts 134°
2026-04-22 20:53 49.73770 1.56314 7477 ft 294 kts 134°
2026-04-22 20:54 49.72316 1.58556 7122 ft 288 kts 133°
2026-04-22 20:54 49.70913 1.60719 6722 ft 285 kts 133°
2026-04-22 20:54 49.69510 1.62879 6319 ft 282 kts 133°
2026-04-22 20:54 49.68143 1.64982 5923 ft 280 kts 133°
2026-04-22 20:55 49.66830 1.67002 5538 ft 277 kts 133°
2026-04-22 20:55 49.65524 1.69008 5326 ft 268 kts 134°
2026-04-22 20:55 49.64184 1.71064 5253 ft 270 kts 134°
2026-04-22 20:55 49.62827 1.73144 5119 ft 271 kts 133°
2026-04-22 20:56 49.61476 1.75211 5001 ft 268 kts 133°
2026-04-22 20:56 49.60202 1.77388 4988 ft 265 kts 123°
2026-04-22 20:56 49.59201 1.79685 4931 ft 249 kts 121°
2026-04-22 20:56 49.58225 1.81916 4675 ft 244 kts 123°
2026-04-22 20:57 49.57264 1.83980 4475 ft 234 kts 122°
2026-04-22 20:57 49.56358 1.86020 4217 ft 212 kts 120°
2026-04-22 20:57 49.55567 1.87847 3856 ft 189 kts 120°
2026-04-22 20:57 49.54835 1.89550 3594 ft 183 kts 120°
2026-04-22 20:58 49.54143 1.91152 3378 ft 160 kts 119°
2026-04-22 20:58 49.53551 1.92531 3150 ft 150 kts 118°
2026-04-22 20:58 49.52948 1.93930 2922 ft 150 kts 119°
2026-04-22 20:58 49.52356 1.95304 2705 ft 149 kts 119°
2026-04-22 20:59 49.51769 1.96664 2494 ft 148 kts 119°
2026-04-22 20:59 49.51178 1.98032 2284 ft 147 kts 119°
2026-04-22 20:59 49.50596 1.99379 2076 ft 146 kts 119°
2026-04-22 20:59 49.50022 2.00707 1868 ft 144 kts 119°
2026-04-22 21:00 49.49465 2.01995 1674 ft 142 kts 119°
2026-04-22 21:00 49.48906 2.03287 1478 ft 142 kts 119°
2026-04-22 21:00 49.48372 2.04522 1290 ft 141 kts 120°
2026-04-22 21:00 49.47818 2.05800 1097 ft 140 kts 120°
2026-04-22 21:01 49.47279 2.07046 910 ft 139 kts 120°
2026-04-22 21:01 49.46730 2.08311 718 ft 138 kts 120°
2026-04-22 21:01 49.46184 2.09569 533 ft 135 kts 120°
2026-04-22 21:01 49.45658 2.10771 353 ft 126 kts 121°
2026-04-22 21:02 49.45264 2.11681 331 ft 64 kts 117°
2026-04-22 21:02 49.45125 2.12038 324 ft 13 kts 126°
2026-04-22 21:02 49.45035 2.12232 321 ft 59 kts 126°
2026-04-22 21:02 49.44771 2.12826 307 ft 58 kts 122°
2026-04-22 21:03 49.44672 2.13152 305 ft 16 kts 118°
2026-04-22 21:03 49.44640 2.13090 304 ft 16 kts 309°
2026-04-22 21:03 49.44729 2.12930 306 ft 20 kts 309°
2026-04-22 21:03 49.44806 2.12763 309 ft 21 kts 303°
2026-04-22 21:04 49.44900 2.12540 315 ft 34 kts 305°
2026-04-22 21:04 49.45064 2.12200 321 ft 39 kts 311°
2026-04-22 21:04 49.45183 2.11880 327 ft 31 kts 301°
2026-04-22 21:04 49.45289 2.11627 332 ft 26 kts 304°
2026-04-22 21:05 49.45382 2.11420 336 ft 20 kts 305°
2026-04-22 21:05 49.45475 2.11335 338 ft 15 kts 27°
2026-04-22 21:05 49.45554 2.11432 340 ft 14 kts 41°
2026-04-22 21:05 49.45653 2.11568 344 ft 17 kts 41°
2026-04-22 21:06 49.45732 2.11604 347 ft 9 kts 329°
2026-04-22 21:06 49.45774 2.11544 348 ft 7 kts 311°
2026-04-22 21:06 49.45785 2.11422 347 ft 14 kts 224°
2026-04-22 21:06 49.45706 2.11311 345 ft 14 kts 234°
2026-04-22 21:07 49.45724 2.11188 345 ft 9 kts 304°
2026-04-22 21:07 49.45740 2.11179 346 ft 7 kts 15°
2026-04-22 21:07 49.45771 2.11210 346 ft 3 kts 33°
2026-04-22 21:07 49.45780 2.11218 346 ft 0 kts 32°